This is the latest recevied weather packets stored in our database for station/object K7BC. If no packets are shown the sender has not sent any weather packets the latest 1 day(s).
| Time | Temp. | Humidity | Pressure | Rain* | Wind** | Luminosity | Snow |
|---|---|---|---|---|---|---|---|
| 1777998904 | 27.78° C | 39% | 1011.6 hPa | 0 mm | 0.45 m/s, 268° | - | - |
| 1777998784 | 27.78° C | 37% | 1011.6 hPa | 0 mm | 0.45 m/s, 205° | - | - |
| 1777998663 | 27.78° C | 38% | 1011.7 hPa | 0 mm | 0.45 m/s, 119° | - | - |
| 1777998545 | 27.78° C | 38% | 1011.7 hPa | 0 mm | 0.45 m/s, 131° | - | - |
| 1777998424 | 27.78° C | 38% | 1011.8 hPa | 0 mm | 0.45 m/s, 100° | - | - |
| 1777998303 | 27.78° C | 36% | 1011.8 hPa | 0 mm | 0.89 m/s, 146° | - | - |
| 1777998185 | 27.78° C | 38% | 1011.8 hPa | 0 mm | 0.45 m/s, 186° | - | - |
| 1777998063 | 27.22° C | 37% | 1011.8 hPa | 0 mm | 0.45 m/s, 304° | - | - |
| 1777997944 | 27.22° C | 38% | 1011.9 hPa | 0 mm | 0.89 m/s, 47° | - | - |
| 1777997823 | 27.22° C | 37% | 1011.9 hPa | 0 mm | 0.89 m/s, 202° | - | - |
| 1777997705 | 27.22° C | 39% | 1012 hPa | 0 mm | 0.89 m/s, 211° | - | - |
| 1777997584 | 27.22° C | 38% | 1012 hPa | 0 mm | 0.89 m/s, 183° | - | - |
| 1777997464 | 26.67° C | 41% | 1012.1 hPa | 0 mm | 0.45 m/s, 186° | - | - |
| 1777997345 | 26.67° C | 42% | 1012.1 hPa | 0 mm | 0 m/s | - | - |
| 1777997224 | 26.67° C | 42% | 1012.1 hPa | 0 mm | 0.45 m/s, 227° | - | - |
| 1777997103 | 26.11° C | 45% | 1012.2 hPa | 0 mm | 0 m/s | - | - |
| 1777996985 | 26.11° C | 45% | 1012.2 hPa | 0 mm | 0.45 m/s, 288° | - | - |
| 1777996863 | 26.11° C | 45% | 1012.1 hPa | 0 mm | 0.45 m/s, 46° | - | - |
| 1777996743 | 26.11° C | 46% | 1012.1 hPa | 0 mm | 0.45 m/s, 209° | - | - |
| 1777996625 | 26.11° C | 46% | 1012.2 hPa | 0 mm | 0 m/s | - | - |
| 1777996504 | 26.11° C | 45% | 1012.2 hPa | 0 mm | 0.89 m/s, 248° | - | - |
| 1777996384 | 26.11° C | 45% | 1012.3 hPa | 0 mm | 0.45 m/s, 125° | - | - |
| 1777996265 | 26.11° C | 46% | 1012.2 hPa | 0 mm | 0.45 m/s, 141° | - | - |
| 1777996144 | 26.11° C | 45% | 1012.3 hPa | 0 mm | 0.89 m/s, 191° | - | - |
| 1777996024 | 26.11° C | 46% | 1012.3 hPa | 0 mm | 0.45 m/s, 263° | - | - |
* Rain latest hour (hover to see other rain measurements)
** Current wind speed in m/s (hover to see current wind gust speed)